Weather History for KSLC - June, 2013

Change the Weather History Date:

Tuesday, June 18, 2013

  Actual Average Record
Temperature  
Mean Temperature 81 °F 70 °F  
Max Temperature 98 °F 84 °F 102 °F (1940)
Min Temperature 63 °F 57 °F 37 °F (1928)
Degree Days  
Heating Degree Days 0 1  
Month to date heating degree days 2 38  
Since 1 June heating degree days 2 38  
Since 1 July heating degree days 5458 5599  
Cooling Degree Days 16 7  
Month to date cooling degree days 175 85  
Year to date cooling degree days 245 135  
Since 1 June cooling degree days 175 85  
Growing Degree Days 30 (Base 50)    
Moisture  
Dew Point 21 °F    
Average Humidity 19    
Maximum Humidity 34    
Minimum Humidity 4    
Precipitation  
Precipitation 0.00 in 0.03 in 0.32 in (1975)
Month to date precipitation 0.00 0.73  
Year to date precipitation 6.12 8.96  
Snow  
Snow 0.00 in 0.00 in - ()
Month to date snowfall 0.0 0.0  
Since 1 July snowfall 69.9 56.2  
Snow Depth 0.00 in    
Sea Level Pressure  
Sea Level Pressure 29.61 in    
Wind  
Wind Speed 14 mph (SSE)    
Max Wind Speed 26 mph    
Max Gust Speed 32 mph    
Visibility 10 miles    
Events      
T = Trace of Precipitation, MM = Missing Value Source: NWS Daily Summary

Daily Weather History Graph

Daily Weather History Graph

Search for Another Location

Airport or City:

Trip Planner

Search our weather history database for the weather conditions in past years. The results will help you decide how hot, cold, wet, or windy it might be!

Date:

Astronomy

Jun. 18, 2013 Rise Set
Actual Time 5:56 AM MDT 9:02 PM MDT
Civil Twilight 5:22 AM MDT 9:35 PM MDT
Nautical Twilight 4:39 AM MDT 10:18 PM MDT
Astronomical Twilight 3:49 AM MDT 11:08 PM MDT
Moon 3:49 PM MDT (6/18) 2:08 AM MDT (6/18)
Length of Visible Light 16h 12m
Length of Day
15h 05m
Waxing Gibbous, 71% of the Moon is Illuminated
Jun 18
Waxing Gibbous
Jun 23
Full
Jun 29
Last Quarter
Jul 8
New
Jul 15
First Quarter

Hourly Weather History & Observations

Time (MDT) Temp. Dew Point Humidity Pressure Visibility Wind Dir Wind Speed Gust Speed Precip Events Conditions
12:53 AM 71.1 °F 27.0 °F 19% 29.71 in 10.0 mi SSE 9.2 mph - N/A   Clear
1:53 AM 66.9 °F 32.0 °F 27% 29.70 in 10.0 mi SE 6.9 mph - N/A   Partly Cloudy
2:53 AM 68.0 °F 30.0 °F 24% 29.71 in 10.0 mi SSE 10.4 mph - N/A   Partly Cloudy
3:53 AM 66.9 °F 32.0 °F 27% 29.70 in 10.0 mi SE 10.4 mph - N/A   Partly Cloudy
4:53 AM 66.9 °F 34.0 °F 30% 29.70 in 10.0 mi SSE 10.4 mph - N/A   Clear
5:53 AM 63.0 °F 35.1 °F 35% 29.71 in 10.0 mi SE 8.1 mph - N/A   Partly Cloudy
6:53 AM 71.1 °F 30.0 °F 22% 29.70 in 10.0 mi SSE 16.1 mph - N/A   Partly Cloudy
7:53 AM 75.0 °F 26.1 °F 16% 29.70 in 10.0 mi South 12.7 mph - N/A   Partly Cloudy
8:53 AM 79.0 °F 28.9 °F 16% 29.70 in 10.0 mi SE 12.7 mph - N/A   Partly Cloudy
9:53 AM 82.9 °F 30.0 °F 15% 29.70 in 10.0 mi SE 12.7 mph 18.4 mph N/A   Partly Cloudy
10:53 AM 89.1 °F 16.0 °F 7% 29.69 in 10.0 mi South 18.4 mph 24.2 mph N/A   Partly Cloudy
11:53 AM 91.0 °F 19.0 °F 7% 29.67 in 10.0 mi South 20.7 mph 29.9 mph N/A   Scattered Clouds
12:53 PM 93.0 °F 16.0 °F 6% 29.66 in 10.0 mi South 20.7 mph 27.6 mph N/A   Scattered Clouds
1:53 PM 95.0 °F 17.1 °F 6% 29.64 in 10.0 mi South 16.1 mph 26.5 mph N/A   Partly Cloudy
2:53 PM 96.1 °F 12.0 °F 5% 29.60 in 10.0 mi SSE 17.3 mph 25.3 mph N/A   Scattered Clouds
3:53 PM 96.1 °F 14.0 °F 5% 29.57 in 10.0 mi SSE 18.4 mph 25.3 mph N/A   Partly Cloudy
4:53 PM 97.0 °F 12.0 °F 4% 29.54 in 10.0 mi South 17.3 mph 25.3 mph N/A   Scattered Clouds
5:53 PM 96.1 °F 5.0 °F 4% 29.52 in 10.0 mi South 19.6 mph 31.1 mph N/A   Partly Cloudy
6:53 PM 93.9 °F 8.1 °F 4% 29.49 in 10.0 mi South 21.9 mph 28.8 mph N/A   Partly Cloudy
7:53 PM 91.9 °F 9.0 °F 5% 29.47 in 10.0 mi South 17.3 mph 24.2 mph N/A   Partly Cloudy
8:53 PM 88.0 °F 10.9 °F 6% 29.46 in 10.0 mi South 11.5 mph - N/A   Partly Cloudy
9:53 PM 82.0 °F 18.0 °F 9% 29.46 in 10.0 mi SE 9.2 mph - N/A   Scattered Clouds
10:53 PM 82.0 °F 17.1 °F 9% 29.46 in 10.0 mi SSE 12.7 mph - N/A   Mostly Cloudy
11:53 PM 80.1 °F 23.0 °F 12% 29.45 in 10.0 mi SE 15.0 mph - N/A   Mostly Cloudy